sat.trackr.live / text

‹ back to catalog

STARLINK-32501

NORAD 61890 · 2024-204S

PAYLOAD ACTIVE UNKNOWN

§ Identity

Operator
Country
US
Launch date
2024-11-09
Launch site
AFWTR
Launch vehicle
Mass (kg)
RCS (m²)

Purposes: comms

External: N2YO · Heavens-Above · Gunter

§ Orbital elements

Epoch: 2026-09-21T03:43:10.084512Z

Period
93.85 min
Inclination
53.1609°
Eccentricity
0.0001256
Mean motion
15.34386729 rev/d
Perigee alt
461.9 km
Apogee alt
463.6 km
Semi-major
6,840.9 km
B*
7.6004e-5
RAAN
294.9455°
Arg perigee
66.3272°
Mean anomaly
293.7862°
Rev number
10,508

§ Raw data

STARLINK-325011 61890U 24204S   26264.15497783  .00002191  00000+0  76004-4 0  99932 61890  53.1609 294.9455 0001256  66.3272 293.7862 15.34386729105087

JSON: /api/v1/satellites/61890 · /tle

For live sub-satellite position, see the globe view (requires WebGL).

§ Visibility from observer

Set your observer location to see the next 7 days of passes ≥ 10°. The values pass through the URL so the page stays shareable.

No JS? Fill the form by hand. The geolocation button needs JavaScript.